FLOCK 4A-3 (44081 NORAD) Tracking and Keplerian Element Data

This shows tracking and keplerian element data for the satellite.

Feedback or suggestion? Click here.




ElementValue
Catalog44081
NameFLOCK 4A-3
Epoch Orbit432
Epoch Day119.75466029
Epoch Year2019
RAAN180.0541
Inclination97.4608
Eccentricity0.001374
Argument of Perigee172.0424
Mean Anonmoly188.1033
Mean Motion15.21239947
Decay Rate4.86E-06
L11 44081U 19018D 19119.75466029 .00000486 00000-0 24870-4 0 9999
L22 44081 97.4608 180.0541 0013740 172.0424 188.1033 15.21239947 4323

Live tracking and technical data element details for FLOCK 4A-3 (NORAD 44081). FLOCK 4A-3 can be tracked NOW for your location showing map with azimuth and elevation plus other details from your city location.

Track the satellite on the map from your city or location and see movement details for azimuth, elevation, latitude, longitude, range, height, and movement on the map or in text.







IsCatalogInMostPopularTable: catalog: 44081, numindb: 21
Update: records affected: 1



GetName: 44081 FLOCK 4A-3

Hit Count: updated at: Mon, 22 Jul 2019 03:11:59 GMT